Latest Weather Observations for Gold Coast Seaway

IDQ60801

Issued at 6:02 pm EST Sunday 2 August 2015 (issued every 30 minutes, with the page automatically refreshed every 10 minutes)

About weather observations | Map of weather stations | Latest weather observations for QLD | Other Formats
Station Details ID: 040764 Name: GOLD COAST SEAWAY Lat: -27.94 Lon: 153.43 Height: 2.98 m
Data from the previous 72 hours. | See also: Recent months at Gold Coast Seaway
Date/Time
EST
Temp
°C
App
Temp
°C
Dew
Point
Rel
Hum
%
Delta-T
°C
Wind Press
QNH
hPa
Press
MSL
hPa
Rain
since 9 am
mm
Dir
 
Spd
km/h
Gust
km/h
Spd
kts
Gust
kts
02/06:00pm 19.3 18.5 15.2 77 2.4 NNW 13 19 7 10 1018.6 1018.6 0.0
02/05:30pm 19.9 17.7 14.5 71 3.1 NNW 19 28 10 15 1018.3 1018.3 0.0
02/05:00pm 20.7 18.8 14.1 66 3.8 N 17 24 9 13 1018.4 1018.4 0.0
02/04:30pm 21.8 19.5 14.2 62 4.4 N 19 24 10 13 1018.5 1018.5 0.0
02/04:00pm 22.3 19.5 14.2 60 4.7 N 22 30 12 16 1018.5 1018.5 0.0
02/03:30pm 22.9 19.2 13.9 57 5.3 N 26 33 14 18 1018.5 1018.5 0.0
02/03:00pm 22.9 19.2 12.8 53 5.8 N 24 32 13 17 1018.6 1018.6 0.0
02/02:30pm 23.4 18.7 12.1 49 6.4 N 28 37 15 20 1018.7 1018.7 0.0
02/02:00pm 23.3 18.6 10.7 45 7.0 N 26 37 14 20 1018.9 1018.9 0.0
02/01:30pm 23.4 18.8 11.1 46 6.9 N 26 33 14 18 1019.2 1019.2 0.0
02/01:00pm 23.2 18.2 10.9 46 6.8 N 28 37 15 20 1019.8 1019.8 0.0
02/12:30pm 22.9 17.9 12.2 51 6.1 N 30 39 16 21 1020.3 1020.3 0.0
02/12:00pm 22.9 18.9 13.1 54 5.6 N 26 32 14 17 1020.8 1020.8 0.0
02/11:30am 21.8 18.0 12.4 55 5.3 NNW 24 33 13 18 1021.5 1021.5 0.0
02/11:00am 21.4 18.0 12.5 57 5.0 NNW 22 32 12 17 1022.1 1022.1 0.0
02/10:30am 21.3 17.7 13.2 60 4.6 NNW 24 37 13 20 1022.4 1022.4 0.0
02/10:00am 20.5 17.4 13.5 64 4.0 NNW 22 32 12 17 1022.7 1022.7 0.0
02/09:30am 18.9 17.8 14.2 74 2.7 NNW 13 19 7 10 1022.8 1022.8 0.0
02/09:00am 18.3 17.0 13.8 75 2.6 NW 13 19 7 10 1022.8 1022.8 0.0
02/08:30am 17.0 15.9 14.3 84 1.5 NW 13 17 7 9 1022.7 1022.7 0.0
02/08:00am 15.2 13.7 14.2 94 0.6 NW 15 17 8 9 1022.6 1022.6 0.0
02/07:30am 14.0 12.4 13.8 99 0.1 NW 15 19 8 10 1022.6 1022.6 0.0
02/07:00am 13.3 11.4 13.1 99 0.1 NW 15 19 8 10 1022.4 1022.4 0.0
02/06:30am 13.4 11.2 13.2 99 0.1 NW 17 19 9 10 1022.1 1022.1 0.0
02/06:00am 13.8 12.1 13.6 99 0.1 NNW 15 19 8 10 1021.7 1021.7 0.0
02/05:30am 13.7 12.0 13.5 99 0.1 NW 15 17 8 9 1021.5 1021.5 0.0
02/05:00am 13.6 12.2 13.4 99 0.1 NW 13 15 7 8 1021.4 1021.4 0.0
02/04:30am 13.8 12.9 13.8 100 0.0 NW 11 15 6 8 1021.2 1021.2 0.0
02/04:00am 14.0 13.2 14.0 100 0.0 NNW 11 13 6 7 1021.3 1021.3 0.0
02/03:30am 13.2 12.4 13.0 99 0.1 N 9 11 5 6 1021.4 1021.4 0.0
02/03:00am 12.6 12.0 12.4 99 0.1 NW 7 7 4 4 1021.6 1021.6 0.0
02/02:30am 12.7 11.4 12.5 99 0.1 WNW 11 11 6 6 1021.7 1021.7 0.0
02/02:00am 13.1 12.3 12.9 99 0.1 WNW 9 11 5 6 1022.0 1022.0 0.0
02/01:30am 14.1 13.5 13.6 97 0.3 WNW 9 11 5 6 1022.3 1022.3 0.0
02/01:00am 14.8 14.4 14.0 95 0.4 WNW 9 9 5 5 1022.4 1022.4 0.0
02/12:30am 15.0 14.6 14.0 94 0.6 NW 9 11 5 6 1022.7 1022.7 0.0
02/12:00am 15.1 14.7 14.0 93 0.6 NW 9 11 5 6 1022.8 1022.8 0.0
 
Date/Time
EST
Temp
°C
App
Temp
°C
Dew
Point
Rel
Hum
%
Delta-T
°C
Wind Press
QNH
hPa
Press
MSL
hPa
Rain
since 9 am
mm
Dir
 
Spd
km/h
Gust
km/h
Spd
kts
Gust
kts
01/11:30pm 15.1 14.1 13.3 89 1.0 WNW 11 13 6 7 1022.9 1022.9 0.0
01/11:00pm 15.7 14.4 13.7 88 1.1 NW 13 17 7 9 1022.8 1022.8 0.0
01/10:30pm 15.7 14.3 13.5 87 1.2 NNW 13 15 7 8 1022.7 1022.7 0.0
01/10:00pm 16.1 14.8 13.6 85 1.4 WNW 13 15 7 8 1022.9 1022.9 0.0
01/09:30pm 15.6 14.7 13.6 88 1.1 WNW 11 13 6 7 1023.1 1023.1 0.0
01/09:00pm 16.3 15.4 13.8 85 1.4 WNW 11 13 6 7 1022.8 1022.8 0.0
01/08:30pm 16.3 15.1 14.1 87 1.2 WNW 13 17 7 9 1022.6 1022.6 0.0
01/08:00pm 16.2 15.3 13.7 85 1.4 W 11 15 6 8 1022.4 1022.4 0.0
01/07:30pm 16.8 16.0 13.9 83 1.6 NW 11 15 6 8 1022.0 1022.0 0.0
01/07:00pm 17.5 15.9 14.0 80 2.0 NW 15 17 8 9 1021.7 1021.7 0.0
01/06:30pm 17.7 16.1 13.8 78 2.2 NW 15 17 8 9 1021.5 1021.5 0.0
01/06:00pm 17.9 15.7 13.2 74 2.6 NNW 17 19 9 10 1021.1 1021.1 0.0
01/05:30pm 18.1 17.3 12.8 71 3.0 NNW 9 11 5 6 1021.1 1021.1 0.0
01/05:00pm 19.2 16.5 11.7 62 4.1 NNW 17 22 9 12 1020.8 1020.8 0.0
01/04:30pm 20.5 18.3 12.0 58 4.7 N 15 20 8 11 1020.8 1020.8 0.0
01/04:00pm 21.0 17.3 11.6 55 5.2 N 22 28 12 15 1020.7 1020.7 0.0
01/03:30pm 21.3 17.4 12.2 56 5.1 N 24 30 13 16 1020.7 1020.7 0.0
01/03:00pm 22.1 18.3 11.2 50 6.0 N 22 28 12 15 1020.8 1020.8 0.0
01/02:30pm 22.6 19.0 12.0 51 6.0 N 22 28 12 15 1020.8 1020.8 0.0
01/02:00pm 22.3 19.1 11.1 49 6.2 N 19 26 10 14 1021.1 1021.1 0.0
01/01:30pm 22.5 18.9 11.9 51 6.0 N 22 28 12 15 1021.0 1021.0 0.0
01/01:00pm 22.7 19.0 12.6 53 5.7 N 24 30 13 16 1021.3 1021.3 0.0
01/12:30pm 23.1 19.8 12.7 52 6.0 N 22 28 12 15 1022.0 1022.0 0.0
01/12:00pm 22.3 19.5 12.5 53 5.5 N 19 26 10 14 1022.4 1022.4 0.0
01/11:30am 22.1 19.9 13.2 57 5.1 N 17 24 9 13 1022.7 1022.7 0.0
01/11:00am 21.3 19.8 14.2 64 4.1 NNW 15 17 8 9 1023.3 1023.3 0.0
01/10:30am 21.4 19.9 14.1 63 4.2 NNW 15 20 8 11 1023.6 1023.6 0.0
01/10:00am 20.7 19.9 14.1 66 3.8 WNW 11 15 6 8 1023.9 1023.9 0.0
01/09:30am 19.6 19.6 13.5 68 3.5 W 6 7 3 4 1023.9 1023.9 0.0
01/09:00am 18.5 18.1 13.1 71 3.0 W 7 9 4 5 1023.8 1023.8 0.0
01/08:30am 16.9 16.1 12.8 77 2.3 WSW 9 11 5 6 1023.9 1023.9 0.0
01/08:00am 15.3 14.3 12.4 83 1.6 WSW 9 11 5 6 1023.6 1023.6 0.0
01/07:30am 13.7 14.1 12.4 92 0.7 WSW 2 7 1 4 1023.2 1023.2 0.0
01/07:00am 12.7 12.2 11.9 95 0.4 WSW 6 7 3 4 1022.9 1022.9 0.0
01/06:30am 12.0 10.6 10.9 93 0.6 WSW 9 11 5 6 1022.5 1022.5 0.0
01/06:00am 12.5 11.3 11.6 94 0.5 W 9 13 5 7 1022.3 1022.3 0.0
01/05:30am 12.9 10.9 11.6 92 0.7 WNW 13 13 7 7 1022.2 1022.2 0.0
01/05:00am 12.8 10.8 11.4 91 0.7 W 13 13 7 7 1022.0 1022.0 0.0
01/04:30am 12.8 10.7 11.2 90 0.8 WSW 13 15 7 8 1021.9 1021.9 0.0
01/04:00am 12.7 10.9 10.8 88 1.0 WSW 11 13 6 7 1021.8 1021.8 0.0
01/03:30am 12.9 11.1 11.0 88 1.0 WSW 11 15 6 8 1021.8 1021.8 0.0
01/03:00am 12.5 10.3 10.7 89 0.9 SW 13 15 7 8 1022.0 1022.0 0.0
01/02:30am 13.1 10.5 10.8 86 1.2 SW 15 15 8 8 1022.3 1022.3 0.0
01/02:00am 13.0 10.8 10.9 87 1.1 SW 13 17 7 9 1022.3 1022.3 0.0
01/01:30am 13.2 11.0 10.9 86 1.2 SW 13 15 7 8 1022.5 1022.5 0.0
01/01:00am 13.3 11.4 10.5 83 1.5 W 11 13 6 7 1022.7 1022.7 0.0
01/12:30am 13.3 11.5 10.7 84 1.4 W 11 13 6 7 1022.8 1022.8 0.0
01/12:00am 13.6 11.5 11.1 85 1.3 WSW 13 15 7 8 1022.8 1022.8 0.0
 
Date/Time
EST
Temp
°C
App
Temp
°C
Dew
Point
Rel
Hum
%
Delta-T
°C
Wind Press
QNH
hPa
Press
MSL
hPa
Rain
since 9 am
mm
Dir
 
Spd
km/h
Gust
km/h
Spd
kts
Gust
kts
31/11:30pm 13.4 11.6 10.8 84 1.4 SW 11 15 6 8 1022.8 1022.8 0.0
31/11:00pm 13.8 11.4 11.3 85 1.3 SW 15 15 8 8 1022.7 1022.7 0.0
31/10:30pm 13.7 11.5 10.9 83 1.5 SW 13 15 7 8 1022.8 1022.8 0.0
31/10:00pm 14.1 12.0 11.1 82 1.6 SW 13 15 7 8 1022.7 1022.7 0.0
31/09:30pm 14.7 13.0 11.1 79 1.9 WSW 11 13 6 7 1022.6 1022.6 0.0
31/09:00pm 15.3 13.7 11.7 79 1.9 WSW 11 13 6 7 1022.4 1022.4 0.0
31/08:30pm 15.2 13.1 11.2 77 2.1 SW 13 15 7 8 1022.1 1022.1 0.0
31/08:00pm 16.1 15.4 12.1 77 2.2 SSE 7 13 4 7 1021.9 1021.9 0.0
31/07:30pm 18.1 16.9 12.8 71 3.0 E 11 13 6 7 1021.8 1021.8 0.0
31/07:00pm 18.7 17.4 13.6 72 2.9 ENE 13 17 7 9 1021.3 1021.3 0.0
31/06:30pm 18.4 17.2 14.1 76 2.5 ENE 13 15 7 8 1020.6 1020.6 0.0
31/06:00pm 17.6 16.4 12.9 74 2.6 NE 11 13 6 7 1020.2 1020.2 0.0
31/05:30pm 18.8 17.6 12.8 68 3.4 ENE 11 15 6 8 1020.2 1020.2 0.0
31/05:00pm 19.5 18.0 13.0 66 3.7 ENE 13 15 7 8 1020.2 1020.2 0.0
31/04:30pm 20.5 18.4 12.5 60 4.5 ENE 15 15 8 8 1020.2 1020.2 0.0
31/04:00pm 21.1 19.6 13.0 60 4.6 ENE 13 15 7 8 1020.1 1020.1 0.0
31/03:30pm 22.0 19.9 12.5 54 5.4 ENE 15 19 8 10 1019.8 1019.8 0.0
31/03:00pm 23.4 20.9 6.7 34 8.6 W 9 15 5 8 1019.9 1019.9 0.0
31/02:30pm 22.6 19.3 6.4 35 8.3 WNW 13 17 7 9 1020.0 1020.0 0.0
31/02:00pm 22.4 19.1 6.6 36 8.0 NW 13 20 7 11 1020.1 1020.1 0.0
31/01:30pm 22.0 19.1 6.3 36 8.0 WNW 11 15 6 8 1020.4 1020.4 0.0
31/01:00pm 21.8 18.4 9.0 44 6.8 NW 17 24 9 13 1020.8 1020.8 0.0
31/12:30pm 21.2 17.3 9.4 47 6.3 NW 20 32 11 17 1021.3 1021.3 0.0
31/12:00pm 21.2 17.5 8.1 43 6.8 NW 17 24 9 13 1021.7 1021.7 0.0
31/11:30am 20.3 16.0 9.5 50 5.7 WNW 22 28 12 15 1022.3 1022.3 0.0
31/11:00am 20.1 14.8 9.7 51 5.5 WNW 28 35 15 19 1023.0 1023.0 0.0
31/10:30am 20.2 16.9 10.9 55 5.1 NW 19 28 10 15 1023.2 1023.2 0.0
31/10:00am 19.7 16.6 12.2 62 4.2 NW 20 28 11 15 1023.3 1023.3 0.0
31/09:30am 18.7 17.1 12.9 69 3.3 NNW 13 26 7 14 1023.6 1023.6 0.0
31/09:00am 17.2 14.9 12.9 76 2.4 NW 17 19 9 10 1023.8 1023.8 0.0
31/08:30am 16.5 14.0 13.4 82 1.7 NW 19 20 10 11 1023.5 1023.5 0.0
31/08:00am 15.5 13.0 13.5 88 1.1 NW 19 24 10 13 1023.4 1023.4 0.0
31/07:30am 14.5 12.9 14.0 97 0.3 WNW 15 17 8 9 1023.2 1023.2 0.0
31/07:00am 13.4 11.2 13.2 99 0.1 WNW 17 19 9 10 1022.9 1022.9 0.0
31/06:30am 12.8 10.8 12.8 100 0.0 WNW 15 17 8 9 1022.7 1022.7 0.0
31/06:00am 12.8 12.0 12.8 100 0.0 NW 9 11 5 6 1022.3 1022.3 0.0
31/05:30am 13.3 11.9 13.3 100 0.0 NNW 13 15 7 8 1021.9 1021.9 0.0
31/05:00am 13.4 12.3 13.2 99 0.1 NNW 11 13 6 7 1021.6 1021.6 0.0
31/04:30am 13.5 12.1 13.3 99 0.1 WNW 13 15 7 8 1021.9 1021.9 0.0
31/04:00am 13.2 12.5 13.2 100 0.0 NW 9 11 5 6 1022.2 1022.2 0.0
31/03:30am 12.8 11.9 12.6 99 0.1 WNW 9 11 5 6 1022.6 1022.6 0.0
31/03:00am 12.8 11.5 12.6 99 0.1 WNW 11 13 6 7 1022.6 1022.6 0.0
31/02:30am 13.3 12.2 13.1 99 0.1 WNW 11 13 6 7 1022.9 1022.9 0.0
31/02:00am 13.3 11.9 13.3 100 0.0 WNW 13 13 7 7 1023.1 1023.1 0.0
31/01:30am 13.5 12.1 13.5 100 0.0 WNW 13 15 7 8 1023.0 1023.0 0.0
31/01:00am 13.3 12.2 13.1 99 0.1 WNW 11 13 6 7 1023.2 1023.2 0.0
31/12:30am 13.0 11.8 12.8 99 0.1 WNW 11 13 6 7 1023.7 1023.7 0.0
31/12:00am 13.6 12.6 13.4 99 0.1 W 11 13 6 7 1023.9 1023.9 0.0
 
Date/Time
EST
Temp
°C
App
Temp
°C
Dew
Point
Rel
Hum
%
Delta-T
°C
Wind Press
QNH
hPa
Press
MSL
hPa
Rain
since 9 am
mm
Dir
 
Spd
km/h
Gust
km/h
Spd
kts
Gust
kts
30/11:30pm 13.9 13.4 13.7 99 0.1 W 9 11 5 6 1023.9 1023.9 0.0
30/11:00pm 14.1 14.0 13.9 99 0.1 WSW 7 9 4 5 1024.3 1024.3 0.0
30/10:30pm 14.4 14.0 14.2 99 0.1 WSW 9 11 5 6 1024.5 1024.5 0.0
30/10:00pm 14.7 14.4 14.5 99 0.1 WSW 9 11 5 6 1024.5 1024.5 0.0
30/09:30pm 14.7 14.4 14.4 98 0.2 SW 9 11 5 6 1024.6 1024.6 0.0
30/09:00pm 15.0 14.9 14.0 94 0.6 WSW 7 9 4 5 1024.5 1024.5 0.0
30/08:30pm 15.9 15.6 14.3 90 0.9 W 9 11 5 6 1024.7 1024.7 0.0
30/08:00pm 16.6 16.2 14.2 86 1.4 N 9 11 5 6 1024.8 1024.8 0.0
30/07:30pm 17.3 16.4 14.9 86 1.4 NE 13 15 7 8 1024.6 1024.6 0.0
30/07:00pm 17.3 16.3 14.6 84 1.5 NE 13 15 7 8 1024.5 1024.5 0.0
30/06:30pm 17.5 16.6 14.8 84 1.6 NE 13 17 7 9 1024.6 1024.6 0.0

Other Formats:

Comma delimited format used in spreadsheet applications
http://www.bom.gov.au/fwo/IDQ60801/IDQ60801.94580.axf

JavaScript Object Notation format (JSON) in row-major order
http://www.bom.gov.au/fwo/IDQ60801/IDQ60801.94580.json